Regional Weather Roundup
Issued by NWS

Home | Current Version | Previous Version | Text Only | Print | Product List | Glossary Off
Versions: 1 2 3 4 5 6 7 8 9 10 11 12 13 14 15 16 17 18 19 20 21 22 23 24 25 26 27 28 29 30 31 32 33 34 35 36 37 38 39 40 41 42 43 44 45 46 47 48 49 50

299
ASUS43 KMKX 110200
RWRWI

WISCONSIN REGIONAL WEATHER ROUNDUP
NATIONAL WEATHER SERVICE MILWAUKEE/SULLIVAN WI
800 PM CST TUE DEC 10 2019

NOTE: "FAIR" INDICATES FEW OR NO CLOUDS BELOW 12,000 FEET WITH NO
SIGNIFICANT WEATHER AND/OR OBSTRUCTIONS TO VISIBILITY.

WIZ001-002-006>008-014>016-023>028-110300-
NORTHWEST WISCONSIN

CITY           SKY/WX    TMP DP  RH WIND       PRES   REMARKS
SUPERIOR ARPT  FAIR      -6 -13  73 SW8       30.15F WCI -22
ASHLAND        FAIR      -7 -11  83 SW8       30.12F WCI -23
HAYWARD        FAIR      -4 -11  72 SW7       30.12F WCI -18
SIREN          FAIR      -7 -13  73 W6        30.18F WCI -20
CUMBERLAND     FAIR      -6 -13  71 W9        30.14F WCI -22
RICE LAKE      FAIR      -3 -19  46 SW7       30.17F WCI -16
CHETEK         FAIR      -4  -9  77 MISG      30.18S
LADYSMITH      FAIR      -5  -9  83 SW3       30.15F
EAU CLAIRE     NOT AVBL
MENOMONIE      FAIR      -3  -9  75 SW10      30.22S WCI -21
NEW RICHMOND   FAIR      -5 -11  73 W9        30.21R WCI -21
OSCEOLA        FAIR      -4 -10  75 SW10      30.25S WCI -21
$$

WIZ003>005-009-010-017-018-110300-
NORTH CENTRAL WISCONSIN

CITY           SKY/WX    TMP DP  RH WIND       PRES   REMARKS
MANITOWISH WTR FAIR      -5 -10  79 SW6       30.06S WCI -18
ARBOR VITAE    FAIR      -3  -7  84 CALM      30.07R
WOODRUFF       FAIR      -3  -7  84 CALM      30.07R
RHINELANDER    FAIR      -8 -12  83 W9        30.08R WCI -25
EAGLE RIVER    FAIR      -3  -9  77 W8        30.06R WCI -18
LAND O LAKES   CLOUDY    -1  -6  77 W7G17     30.06R WCI -14
PHILLIPS       FAIR      -5 -10  81 SW5       30.09S WCI -16
TOMAHAWK       FAIR      -6 -10  80 CALM      30.12R
MEDFORD        MOCLDY    -6 -10  83 SW5       30.12S WCI -18
MERRILL        FAIR      -4  -9  79 W3        30.15R
$$

WIZ029-030-035-036-043>047-110300-
CENTRAL WISCONSIN

CITY           SKY/WX    TMP DP  RH WIND       PRES   REMARKS
WAUSAU         FAIR      -2  -8  76 W8        30.15S WCI -17
MOSINEE        CLEAR     -2  -8  78 W8        30.17R WCI -17
MARSHFIELD     FAIR      -1  -7  75 W7        30.15S WCI -14
STEVENS POINT  MOCLDY     1  -6  72 W7        30.19S WCI -12
WAUPACA        FAIR       5  -2  72 SW3       30.22S
WAUTOMA        FAIR       4  -1  80 W7        30.23S WCI  -8
WISC RAPIDS    FAIR       3  -3  76 W7        30.21S WCI  -9
CAMP DOUGLAS   FAIR       4  -1  79 W10       30.22F WCI -11
$$

WIZ011>013-019>022-031-037>040-048>050-110300-
NORTHEAST WISCONSIN

CITY           SKY/WX    TMP DP  RH WIND       PRES   REMARKS
ANTIGO         FAIR      -5 -10  79 W8        30.10S WCI -21
SHAWANO        FAIR       5  -4  65 W5        30.20R WCI  -4
OCONTO         FAIR       4  -4  67 W7        30.20S WCI  -8
STURGEON BAY   FAIR       8  -1  66 MISG      30.18S
GREEN BAY      FAIR       6  -5  60 W9        30.22S WCI  -8
MANITOWOC      FAIR      10   1  67 NW6       30.23R WCI   0
APPLETON       CLEAR      7  -6  56 W8        30.19S WCI  -6
CLINTONVILLE   FAIR       4  -6  63 W8        30.21R WCI -10
OSHKOSH        FAIR       9   0  67 VRB6      30.21F WCI  -1
$$

WIZ032>034-041-042-053>061-110300-
SOUTHWEST WISCONSIN

CITY           SKY/WX    TMP DP  RH WIND       PRES   REMARKS
LA CROSSE      FAIR       5  -5  63 W7        30.29S WCI  -7
SPARTA         FAIR       4  -3  74 W7        30.26R WCI  -8
VIROQUA        FAIR       3  -1  84 W10       30.22S WCI -13
BOSCOBEL       FAIR       9  -1  64 W8        30.31S WCI  -3
PRAIRIE DU CHI FAIR       8  -1  66 W9        30.32S WCI  -6
PLATTEVILLE    FAIR      10   3  75 W13       30.29R WCI  -6
$$

WIZ056-057-062-063-064-067-068-110300-
SOUTH CENTRAL WISCONSIN

CITY           SKY/WX    TMP DP  RH WIND       PRES   REMARKS
REEDSBURG      FAIR       8   1  73 W13       30.24S WCI  -8
BARABOO/DELLS  FAIR       8   2  78 W9        30.23S WCI  -6
LONE ROCK      FAIR      11   1  64 W14       30.28S WCI  -5
MINERAL POINT  FAIR      12   3  67 W16       30.24S WCI  -4
MADISON        FAIR      12   3  67 W9        30.24S WCI   0
MIDDLETON      FAIR      12   5  71 W6        30.25S WCI   3
WATERTOWN      FAIR      13   4  65 W8        30.23S WCI   2
MONROE         FAIR      14   6  72 W13G18    30.25R WCI   0
JANESVILLE     PTCLDY    16   9  73 W9        30.27S WCI   4
$$

WIZ051-052-058>065-066-070>072-110300-
SOUTHEAST WISCONSIN

CITY           SKY/WX    TMP DP  RH WIND       PRES   REMARKS
MILWAUKEE      FAIR      18   1  47 W7        30.24S WCI   9
WAUKESHA       CLEAR     12   1  62 W7        30.24R WCI   2
MILWAUKEE/TIMM CLEAR     14   0  52 W8        30.25R WCI   3
RACINE         FAIR      17   2  51 W7G16     30.27R WCI   8
KENOSHA        FAIR      18   5  57 W14G20    30.26R WCI   4
FOND DU LAC    FAIR      12   0  58 W10       30.22F WCI  -1
SHEBOYGAN      FAIR      12   1  61 W7        30.22R WCI   1
WEST BEND      FAIR      12   1  62 W8        30.22S WCI   1
JUNEAU         FAIR      11   1  63 CALM      30.24R
$$

LSZ147-162-110300-
LAKE SUPERIOR

STATION/POSITION TIME  TEMP    WIND        PRES    WAVE
                       AIR SEA DIR/SP/G            HT/PER
                 (UTC) (F)     (DEG/KT/KT) (MB)    (FT/S)
DEVILS ISLAND    0100    8     260/ 21/ 27 1020.6F
SAXON HARBOR     0130    0     200/  4/  8 1020.7F
$$

LMZ867-665-643>646-110300-
LAKE MICHIGAN

STATION/POSITION TIME  TEMP    WIND        PRES    WAVE
                       AIR SEA DIR/SP/G            HT/PER
                 (UTC) (F)     (DEG/KT/KT) (MB)    (FT/S)
CHAMBERS ISLAND  0140   10     200/ 11/ 20   N/A
KEWAUNEE LAKESHO 0124    9     270/  8/ 11 1022.3
SHEBOYGAN LAKESH 0100   15     280/ 10/ 11 1025.0R
PORT WASHINGTON  0140   16     270/  3/  8 1025.4R
MILWAUKEE LAKESH 0130   17     260/  7/  9   N/A
KENOSHA   LAKESH 0100   18     260/ 11/ 14 1024.7
$$

TC  - TEMPERATURE IN CELSIUS
VSB - VISIBILITY IN STATUTE MILES
WCI - WIND CHILL INDEX
HX  - HEAT INDEX





USA.gov is the U.S. government's official web portal to all federal, state and local government web resources and services.